Simultaneous Nadir Overpasses (SNOs) Predictions

Prediction of SNOs between GOES-15 and METOP-B Satellite Orbit:

Table of predicted SNOs for the next 14.0 days since TLE Epoch: 5/28/2022
Index Date Time (GOES-15) GOES-15 Lat,Lon METOP-B Lat,Lon Distance(km) Time Diff (sec)
1 05/29/2022 06:12:26 0.21,-127.92 -0.29,-130.20 259.42 80
2 05/30/2022 05:49:08 0.22,-127.95 0.85,-125.22 312.61 80
3 05/31/2022 18:10:40 -0.21,-128.03 0.15,-129.78 198.96 80
4 06/01/2022 17:47:21 -0.22,-128.06 -0.94,-124.78 372.88 80
5 06/03/2022 06:09:02 0.22,-128.07 -0.08,-129.38 149.87 80
6 06/04/2022 05:45:44 0.23,-128.10 1.06,-124.40 421.46 80
7 06/05/2022 18:07:16 -0.22,-128.16 -0.07,-128.97 90.97 80
8 06/06/2022 17:43:57 -0.24,-128.19 -1.16,-123.97 480.47 80
9 06/08/2022 06:05:38 0.23,-128.20 0.15,-128.57 42.48 80
10 06/10/2022 18:01:11 -0.23,-128.28 -0.26,-128.14 15.36 80
